Weather History for Detroit Metro, MI

Change the Weather History Date:

Tuesday, April 8, 2014

  Actual Average Record
Temperature  
Mean Temperature 51 °F 46 °F  
Max Temperature 63 °F 56 °F 79 °F (2001)
Min Temperature 39 °F 37 °F 11 °F (1982)
Degree Days  
Heating Degree Days 14 19  
Month to date heating degree days 163 160  
Since 1 July heating degree days 6532 5575  
Cooling Degree Days 0 0  
Month to date cooling degree days 0 0  
Year to date cooling degree days 0 0  
Growing Degree Days 1 (Base 50)    
Moisture  
Dew Point 34 °F    
Average Humidity 57    
Maximum Humidity 89    
Minimum Humidity 25    
Precipitation  
Precipitation 0.07 in 0.10 in 0.94 in (2002)
Month to date precipitation 0.90 0.74  
Year to date precipitation 8.13 7.00  
Snow  
Snow 0.00 in 0.00 in 0.80 in (1902)
Month to date snowfall T 0.8  
Since 1 July snowfall 91.7 41.6  
Snow Depth 0.00 in    
Sea Level Pressure  
Sea Level Pressure 29.62 in    
Wind  
Wind Speed 8 mph (WNW)    
Max Wind Speed 16 mph    
Max Gust Speed 23 mph    
Visibility 8 miles    
Events Rain    
T = Trace of Precipitation, MM = Missing Value Source: NWS Daily Summary

Daily Weather History Graph

Daily Weather History Graph

Search for Another Location

Airport:

Trip Planner

Search our weather history database for the weather conditions in past years. The results will help you decide how hot, cold, wet, or windy it might be!

Date:

Astronomy

Apr. 08, 2014 Rise Set
Actual Time 7:04 AM EDT 8:06 PM EDT
Civil Twilight 6:35 AM EDT 8:35 PM EDT
Nautical Twilight 6:01 AM EDT 9:09 PM EDT
Astronomical Twilight 5:25 AM EDT 9:45 PM EDT
Moon 1:53 PM EDT (4/8) 3:22 AM EDT (4/8)
Length of Visible Light 14h 00m
Length of Day
13h 02m
Waxing Gibbous, 62% of the Moon is Illuminated
Apr 8
Waxing Gibbous
Apr 15
Full
Apr 22
Last Quarter
Apr 29
New
May 6
First Quarter

Hourly Weather History & Observations

Time (EDT) Temp. Windchill Dew Point Humidity Pressure Visibility Wind Dir Wind Speed Gust Speed Precip Events Conditions
12:35 AM 42.8 °F 37.5 °F 39.2 °F 87% 29.47 in 4.0 mi North 9.2 mph - 0.01 in Rain Light Rain
12:53 AM 42.1 °F 36.6 °F 39.9 °F 92% 29.48 in 4.0 mi NNW 9.2 mph - 0.02 in Rain Light Rain
1:37 AM 42.8 °F 37.0 °F 39.2 °F 87% 29.47 in 4.0 mi NW 10.4 mph - 0.00 in Rain Light Rain
1:53 AM 42.1 °F 36.6 °F 39.0 °F 89% 29.48 in 4.0 mi NW 9.2 mph - 0.00 in Rain Light Rain
2:44 AM 42.8 °F 37.0 °F 39.2 °F 87% 29.47 in 3.0 mi WNW 10.4 mph - 0.03 in Rain Light Rain
2:53 AM 42.1 °F 35.2 °F 39.0 °F 89% 29.47 in 3.0 mi WNW 12.7 mph - 0.03 in Rain Light Rain
3:53 AM 41.0 °F 34.7 °F 37.9 °F 89% 29.48 in 4.0 mi West 10.4 mph - 0.04 in Rain Light Rain
4:00 AM 41.0 °F 34.7 °F 37.4 °F 87% 29.48 in 5.0 mi WNW 10.4 mph - 0.00 in Rain Light Rain
4:53 AM 39.9 °F 33.9 °F 36.0 °F 86% 29.50 in 6.0 mi West 9.2 mph - 0.00 in Rain Light Rain
5:53 AM 39.0 °F 32.8 °F 32.0 °F 76% 29.53 in 9.0 mi WNW 9.2 mph - 0.00 in   Overcast
6:53 AM 39.0 °F 34.8 °F 32.0 °F 76% 29.56 in 10.0 mi West 5.8 mph - N/A   Overcast
7:53 AM 41.0 °F 36.4 °F 33.1 °F 73% 29.60 in 10.0 mi West 6.9 mph - N/A   Overcast
8:53 AM 43.0 °F 38.8 °F 32.0 °F 65% 29.62 in 10.0 mi West 6.9 mph - N/A   Overcast
9:53 AM 46.0 °F 42.5 °F 33.1 °F 61% 29.63 in 10.0 mi West 6.9 mph - N/A   Mostly Cloudy
10:53 AM 48.9 °F - 33.1 °F 54% 29.65 in 10.0 mi WNW 8.1 mph - N/A   Mostly Cloudy
11:53 AM 52.0 °F - 32.0 °F 47% 29.68 in 10.0 mi West 6.9 mph - N/A   Mostly Cloudy
12:53 PM 55.9 °F - 30.9 °F 39% 29.68 in 10.0 mi Calm Calm - N/A   Scattered Clouds
1:53 PM 59.0 °F - 28.0 °F 31% 29.67 in 10.0 mi West 10.4 mph - N/A   Scattered Clouds
2:53 PM 61.0 °F - 25.0 °F 25% 29.67 in 10.0 mi West 8.1 mph - N/A   Scattered Clouds
3:53 PM 62.1 °F - 28.9 °F 29% 29.67 in 10.0 mi West 6.9 mph 18.4 mph N/A   Scattered Clouds
4:53 PM 61.0 °F - 30.0 °F 31% 29.67 in 10.0 mi West 10.4 mph - N/A   Mostly Cloudy
5:53 PM 60.1 °F - 28.9 °F 31% 29.68 in 10.0 mi WNW 11.5 mph - N/A   Mostly Cloudy
6:53 PM 59.0 °F - 30.9 °F 35% 29.70 in 10.0 mi NW 9.2 mph - N/A   Mostly Cloudy
7:53 PM 57.0 °F - 32.0 °F 39% 29.72 in 10.0 mi West 8.1 mph - N/A   Mostly Cloudy
8:53 PM 55.9 °F - 33.1 °F 42% 29.74 in 10.0 mi WNW 8.1 mph - N/A   Mostly Cloudy
9:53 PM 54.0 °F - 34.0 °F 47% 29.77 in 10.0 mi West 5.8 mph - N/A   Overcast
10:53 PM 52.0 °F - 35.1 °F 53% 29.79 in 10.0 mi NNE 12.7 mph - N/A   Overcast
11:53 PM 48.9 °F - 36.0 °F 61% 29.81 in 10.0 mi NNE 4.6 mph - N/A   Overcast